Location: Brno
(49.2000°N, 16.6330°E)
Time: 04:57:01
(UTC+01:00)

Cosmos 332 Rocket - Visible Passes

Search period start: 08 February 2016 00:00
Search period end: 18 February 2016 00:00
Orbit: 683 x 705 km, 74.0° (Epoch: 07 February)

Date Brightness Start Highest point End Pass type
(mag) Time Alt. Az. Time Alt. Az. Time Alt. Az.
11 Feb 6.4 20:09:59 10° N 20:10:20 11° N 20:10:20 11° N visible
12 Feb 6.2 19:12:23 10° NNE 19:12:24 10° NNE 19:12:24 10° NNE visible
12 Feb 6.5 20:50:44 10° NNW 20:51:08 12° NNW 20:51:08 12° NNW visible
13 Feb 6.0 19:52:01 10° N 19:53:14 15° N 19:53:14 15° N visible
14 Feb 5.9 18:54:09 10° NNE 18:55:23 12° NNE 18:55:23 12° NNE visible
14 Feb 6.1 20:32:49 10° NNW 20:34:07 18° NNW 20:34:07 18° NNW visible
15 Feb 5.5 19:34:02 10° N 19:36:17 21° NNE 19:36:17 21° NNE visible
15 Feb 6.5 21:14:09 10° NNW 21:15:01 15° NW 21:15:01 15° NW visible
16 Feb 5.7 18:36:00 10° NNE 18:38:17 13° NE 18:38:31 13° NE visible
16 Feb 5.4 20:14:54 10° NNW 20:17:15 28° N 20:17:15 28° N visible
17 Feb 5.0 19:16:05 10° N 19:19:32 27° NE 19:19:32 27° NE visible
17 Feb 6.0 20:56:18 10° NNW 20:58:16 23° NW 20:58:16 23° NW visible
